Погода в Вельске

Погода в Вельске : погода сейчас, прогноз погоды и архив. Всё, что Вы хотите узнать о погоде в Вельске!

Поиск расширенной информации на нашем сайте:

Другие новости

Новости СМИ2

Главная страница сайта

Новости сайта

02.10.2013

Напоминаем, что на нашем новом сайте вы можете получить высокодетализированные прогнозы погоды по пунктам России, СНГ и мира (включающие важные для авиации метеовеличины, такие как направление и скорость ветра, видимость, явления погоды, количество и форма облачности, нижняя и верхняя граница облачности), а также ознакомиться с разнообразными материалами по авиационной метеорологии и подборкой полезных ссылок на эту тему.

Сайт Метеоцентр.Азия посвящён разработке технологий оптимизации авиаметеорологического обслуживания, включая проектирование и перспективное создание нескольких автоматизированных авиаметеорологических систем:
- система выпуска высокодетальных прогностических карт явлений погоды для нижнего воздушного пространства по России и ближнему зарубежью;
- система верификации прогнозов TAF (выпускаемых синоптиками официальных АМСГ РФ и ближнего зарубежья) и AUTOTAF (выпускаемых сайтом Метеоцентр.Азия) - выявление ошибок, онлайн-сопоставление с фактической погодой METAR, автоматическое внесение коррективов в прогнозы при резком отклонении фактической погоды от прогноза, подсчёт оправдываемости прогнозов по элементам и в целом;
- система обработки, анализа и отображения авиаметеорологической информации для применения провайдерами метеорологической информации.

Рекомендуем: Шенгенская виза срочно.

Погода в Вельске - сегодня

Время (UTC), дата Ветер
(°,м/с) 
Видим.   Явления Облачность Т
(°С)
Тd
(°С)
f(%) Тe
(°С)
Pmin
(гПа)
dP
(гПа)
Po
(мм)
O2
(г/м3)
Тmin Tmax R s Состояние
почвы
06 17.02.17 190 (Ю) 20000 м    10/10 720 м 
[Sc]
-7.4 -11.2 74 -9  1007.8  -2.2  747  310           
09 17.02.17 200 (Ю) 20000 м    10/10 570 м 
[Sc]
-6.3 -10.2 74 -8  1006.1  -1.6  746  309           
12 17.02.17 210 (ЮЗ) 4000 м  слаб. снег  10/10 300 м 
[Frnb|Ns]
-5.5 -7.9 83 -7  1004.1  -2  744  307           
15 17.02.17 190 (Ю) 10 км    10/10 330 м 
[Frnb|Ns]
-6 -8.1 85 -7  1002.9  -1.2  744  307    -5.4  0.7     
18 17.02.17 220 (ЮЗ) 20000 м  {снег}  10/10 660 м 
[Sc]
-5.3 -7.6 84 -8  1001.3  -1.5  742  306           
21 17.02.17 210 (ЮЗ) 20000 м    10/10 630 м 
[Sc]
-4.6 -6.6 86 -7  999.3  -1.9  741  304           
00 18.02.17 210 (ЮЗ) 20000 м    10/10 540 м 
[Sc]
-3.7 -5.6 87 -5  997.2  -2  740  303           
03 18.02.17 230 (ЮЗ) 20000 м  {ливн. осадки}  10/10 500 м 
[Sc]
-2.8 -4.6 87 -5  996  -1.1  739  301  -6    0.0  59  равномерный
сухой снег
100% 
06 18.02.17 250 (З) 20000 м  в посл. час ливневой снег  10/10 600 м кучево-дожд. 
[Cb cap]
-1.3 -3.8 83 -4  995.4  -0.6  738  299           
09 18.02.17 260 (З) 20000 м    9/9 570 м 
[Sc]
+0.3 -3.9 73 -1  994.4  -1  737  297           
12 18.02.17 260 (З) 20000 м    10/10 800 м 
[Sc]
+0.7 -4.5 68 -1  993.2  -1.1  737  297           
15 18.02.17 280 (З) 4000 м  слаб. ливневой снег  10/10 480 м кучево-дожд. 
[Cb cap]
-1.4 -3.3 87 -2  992.5  -0.7  736  298    +0.8  0.0     
18 18.02.17 290 (З) 20000 м  {ливн. осадки}  ясно 
-3.3 -5.8 83 -4  993.1  0.5  736  301           
21 18.02.17 310 (СЗ) 20000 м    8/8 720 м 
[Sc]
-6 -9.6 76 -7  996.6  3.4  739  305           
00 19.02.17 310 (СЗ) 20000 м    10/10 420 м 
[Sc]
-5.7 -10 72 -7  1000.1  3.4  742  306           
03 19.02.17 290 (З) 20000 м    ясно 
-7.6 -11 77 -9  1004  3.8  744  310  -7.6    0.7  59  равномерный
сухой снег
100% 
06 19.02.17 270 (З) 20000 м    9/0 верхняя 
[Ci fib]
-9.8 -11.9 85 -12  1005.7  1.6  746  313  -10         
09 19.02.17 230 (ЮЗ) 20000 м    10/0 верхняя 
[Ci fib]
-7.4 -11.2 74 -7  1005.3  -0.3  745  310           
12 19.02.17 170 (Ю) 20000 м    10/10 570 м 
[Sc]
-5.4 -10.4 68 -8  1002.7  -2.5  743  307           
15 19.02.17 140 (ЮВ) 2000 м  снег  10/10 330 м 
[Frnb|Ns]
-6.6 -8.2 88 -9  997.9  -4.8  740  306    -5.3  0.9     
18 19.02.17 120 (ЮВ) 4000 м  слаб. снег  10/10 300 м 
[Frnb|Ns]
-6.5 -8.1 88 -8  992.5  -5.3  736  305           
21 19.02.17 120 (ЮВ) 10 км  слаб. снег  10/10 330 м 
[Frnb|Ns]
-6.1 -7.6 89 -8  988.6  -3.8  733  303           
00 20.02.17 140 (ЮВ) 2000 м  снег  10/10 270 м 
[Frnb|Ns]
-5.1 -6.4 91 -5  985.4  -3.1  731  301           
03 20.02.17 200 (Ю) 2000 м  снег  10/10 240 м 
[Frnb|Ns]
-3.3 -4.5 91 -3  982.3  -3  728  298  -6.6    64  равномерный
сухой снег
100% 
06 20.02.17 210 (ЮЗ) 2000 м  снег  10/10 240 м 
[Frnb|Ns]
+0.2 -0.8 93 -2  978.1  -4  725  292           
Время (UTC), дата Ветер
(°,м/с) 
Видим.   Явления Облачность Т
(°С)
Тd
(°С)
f(%) Тe
(°С)
Pmin
(гПа)
dP
(гПа)
Po
(мм)
O2
(г/м3)
Тmin Tmax R s Состояние
почвы

Для получения пояснительной информации подведите курсор к названию столбца.

ПОГОДА в Вельске - архив

Всё, что Вы хотите узнать о погоде в Вельске - удобно и подробно!

Выберите нужную дату (начиная с 1 января 2015* года) и нажмите кнопку "Найти".
Будут отображены архивные сводки погоды по пункту Вельск, начиная с указанной даты.


Отображать данные в формате CSV (для использования в таблицах Excel)


Внимание! Наш архив погоды предназначен исключительно для личного некоммерческого использования в познавательных целях. Если Вам необходимы официальные справки о состоянии погоды (для производственных, юридических, коммерческих и т.п. целей), обращайтесь в органы Росгидромета.

*Примечание: данная дата относится к архиву по метеостанциям СССР (Россия, СНГ, Балтия).
Архив по метеостанциям Зарубежной Европы и Азии (кроме Китая) хранится 10 дней, по другим регионам земного шара (Китай, Африка, Америка, Австралия, Океания) - 1 день.

Вельск - район местоположения метеостанции


Название, широта, долгота, высота метеостанции:
Вельск 61.1°ш. 42.1°д. 91 м над ур. моря [Российская Федерация]

Дополнительная информация

В oтличие oт бoльшинства пoгoдных сайтoв мы публикуем пoдрoбную метеoинфoрмацию в детальнoм прoфессиoнальнoм фoрмате.

Характеристики температуры и влажнoсти вoздуха измеряются на высoте 2 м в тени вдали oт зданий и деревьев.
Скoрoсть ветра измеряется на высoте 10 м (на урoвне рoста челoвека скoрoсть ветра ниже в 1.5-2 раза). Если метеoстанция нахoдится в гoрoде или в лесу, тo скoрoсть ветра занижена на 2-4 м/с пo сравнению с oткрытым местoм. Скoрoсть ветра над акватoриями крупных рек и oзёр, а также на вершинах хoлмoв на 2-5 м/с выше, чем в oбычных услoвиях.
Атмoсфернoе давление в разных тoчках местнoсти мoжет значительнo oтличаться oт давления на метеoстанции, в зависимoсти oт услoвий рельефа (при пoдъёме на 10 м давление пoнижается примернo на 1 мм рт.ст.).